Location: Casilda
(33.0440°S, 61.1680°W)
Time: 14:31:40
(UTC-03:00)

ISS - Pass Details

Date: 20 June 2017
Orbit: 401 x 408 km, 51.6° (Epoch: 28 June)

Event Time Altitude Azimuth Distance (km) Brightness Sun altitude
Exits shadow 07:27:37 11° 262° (W) 1,436 -1.7 -8.4°
Maximum altitude 07:29:56 19° 308° (NW) 1,038 -2.0 -7.9°
Drops below altitude 10° 07:32:20 10° 355° (N) 1,455 -0.8 -7.5°
Sets 07:34:46 0° 14° (NNE) 2,306 0.6 -7.0°
